Lid_Strength_Index
9 12 14 13 12 12 13 15 16 14 12 13 14 13 12 11 11 12 12 12 11 11 10 8 6 6 7 7 8 9 9 10 9 10 10 10 10 10 10 10 9 10 9 9
11 14 12 11 12 13 14 15 16 13 12 14 14 14 12 11 11 11 11 12 11 11 11 9 8 8 7 8 8 9 9 9 9 9 9 9 10 10 10 10 10 9 10 10
13 13 11 12 13 14 15 15 15 15 13 14 15 15 13 12 12 11 12 11 11 11 11 10 9 9 9 9 9 9 9 9 8 8 8 9 9 9 10 10 10 10 9 10
13 13 13 13 13 13 16 13 14 14 17 20 15 20 16 14 13 13 13 11 12 12 11 10 10 10 10 9 9 9 8 8 8 8 8 9 10 10 10 10 10 10 10 10
14 14 14 14 14 13 15 13 14 14 18 19 18 21 16 14 14 14 13 12 12 12 11 11 11 10 9 9 10 9 9 8 8 8 8 9 10 10 10 10 11 11 11 11
14 12 13 14 13 13 12 14 14 16 18 24 22 20 18 15 15 14 13 12 11 11 11 11 10 10 10 10 10 9 9 9 8 8 9 9 9 10 10 11 12 12 12 11
14 15 14 12 14 13 13 17 22 22 23 22 17 19 16 16 15 15 14 13 13 12 11 11 11 11 10 10 10 9 9 9 8 8 8 9 9 9 10 10 11 12 12 12
18 18 15 13 15 16 16 17 22 25 21 19 18 21 17 16 15 14 13 13 13 12 11 11 11 10 10 9 9 9 9 9 8 8 8 8 9 8 9 9 10 11 12 12
18 17 15 14 13 14 16 18 16 21 22 23 20 18 16 15 15 14 14 13 13 13 12 11 10 10 10 10 10 10 10 9 8 8 8 9 9 9 9 10 11 11 11 11
15 19 15 15 13 14 15 15 19 20 25 24 20 21 20 16 16 15 15 15 14 13 13 12 11 10 10 9 10 9 9 9 9 9 9 9 9 9 10 10 11 11 11 11
16 18 18 16 17 18 18 19 17 17 19 23 25 21 16 16 15 15 15 14 15 14 13 13 12 11 10 10 10 10 10 10 9 9 9 10 10 9 10 10 10 10 10 11
16 18 20 18 19 19 18 18 18 20 23 23 24 22 16 18 19 19 17 13 12 12 12 11 11 10 10 10 10 10 10 10 10 9 9 10 10 11 11 11 11 11 11 11
16 19 22 20 18 18 21 20 16 21 21 24 23 21 14 15 16 15 15 12 12 11 11 11 11 11 10 10 10 10 10 10 10 10 11 11 11 12 12 12 11 11 11 11
12 16 19 21 19 18 21 17 23 21 24 23 22 22 16 12 14 15 14 12 11 11 12 12 12 11 11 11 11 11 11 11 11 11 11 12 12 12 12 12 12 12 12 12
14 18 17 15 15 16 18 21 21 20 20 19 18 20 20 18 17 19 20 20 17 15 14 11 11 11 11 11 10 10 10 11 11 12 13 13 12 12 12 12 11 12 12 12
14 20 20 24 16 21 24 19 18 19 23 18 24 17 17 21 13 20 20 19 19 18 15 13 11 10 10 10 10 10 10 10 10 11 11 10 10 10 11 11 11 12 12 13
19 19 24 24 17 20 24 23 21 22 24 17 20 17 23 19 21 22 21 20 18 18 15 15 10 10 10 10 10 11 11 10 11 11 11 11 11 11 11 11 12 12 12 13
19 21 21 25 21 29 21 20 22 19 24 25 22 22 21 21 20 19 19 19 18 11 16 10 9 10 10 10 11 11 11 11 11 11 11 10 11 11 11 12 12 12 13 13
14 17 23 25 25 20 17 16 19 20 19 22 21 22 21 18 17 16 12 15 15 9 13 11 9 9 9 12 11 11 11 11 11 11 11 10 11 11 12 12 12 12 13 13
14 16 20 23 26 26 19 15 13 18 23 16 19 20 19 19 21 18 14 15 15 13 11 10 9 9 11 11 10 10 10 10 11 10 10 10 11 11 12 12 12 12 12 12
20 23 20 18 19 19 15 14 14 22 20 14 16 18 21 18 16 16 14 12 8 7 7 8 9 10 10 9 10 10 10 10 9 9 10 11 11 11 11 11 11 11 11 11
22 22 20 20 22 23 13 13 17 15 13 13 14 16 18 15 14 13 11 12 11 10 7 7 9 10 11 9 9 10 10 10 10 11 11 11 11 11 11 12 12 12 12 14
22 17 19 17 17 13 12 13 12 12 12 12 14 13 14 12 11 10 11 11 11 10 7 7 9 12 12 11 10 10 10 11 12 12 12 11 11 11 11 12 12 12 12 13
18 16 19 17 16 17 14 13 12 11 11 11 10 11 10 13 9 9 9 8 9 7 8 8 10 12 13 14 13 12 12 12 13 13 13 13 13 12 12 10 10 12 14 15
18 17 17 17 19 17 15 14 12 11 11 10 10 9 12 12 12 11 10 8 8 6 8 9 10 11 12 15 15 14 13 13 13 13 13 12 12 13 13 11 12 11 11 12
19 19 19 19 18 19 17 14 13 13 14 12 13 14 14 14 14 13 12 10 9 8 11 10 11 11 14 15 15 16 16 14 14 13 12 13 13 14 13 14 13 8 7 7